Location: Aalsum
(53.3404°N, 6.0062°E)
Time: 04:12:47
(UTC+00:00)

SL-16 R/B - Pass Details

Date: 28 January 2023
Orbit: 842 x 846 km, 71.0° (Epoch: 24 March)

Event Time Altitude Azimuth Distance (km) Brightness Sun altitude
Rises 18:14:36 0° 177° (S) 3,387 5.4 -18.2°
Reaches altitude 10° 18:17:15 10° 168° (SSE) 2,458 4.5 -18.6°
Enters shadow 18:22:02 32° 110° (ESE) 1,407 2.9 -19.3°
